Wind_Speed
21 21 22 23 22 21 23 23 26 27 25 25 25 21 35 46 37 35 32 29 27 28
21 21 21 22 22 22 22 24 24 25 25 25 25 22 22 16 37 25 26 29 33 32
21 21 21 20 21 22 23 23 24 25 25 24 23 24 25 25 18 35 34 29 32 31
20 21 21 20 21 20 21 23 24 24 26 24 25 22 21 26 26 27 21 28 33 32
20 20 21 21 22 21 21 20 21 23 25 24 23 22 21 24 25 25 27 20 19 33
19 20 21 21 22 22 22 21 20 20 22 24 24 20 23 24 24 24 23 22 23 22
19 20 20 21 21 21 21 21 21 18 18 20 19 18 23 25 26 27 24 24 26 23
18 19 20 21 22 21 21 20 20 19 16 17 16 18 25 26 27 25 25 25 22 23
18 19 19 20 21 21 21 20 20 19 18 17 16 20 25 28 28 24 24 23 24 24
18 18 18 19 20 20 21 20 20 19 19 19 18 18 25 29 27 22 24 24 23 24
17 18 18 18 19 20 20 20 21 20 19 19 18 23 24 30 21 21 21 23 24 23
16 18 19 20 20 20 20 20 21 21 21 21 19 20 22 25 22 21 21 22 23 24
16 17 19 20 20 20 20 21 21 22 21 22 21 20 23 21 21 22 23 24 22 22
16 17 18 20 20 21 21 21 22 23 23 23 20 21 22 23 20 20 23 24 24 24
Wind_Direction
352 349 345 346 345 340 336 330 330 333 336 338 341 335 251 266 272 229 228 230 234 239
350 349 345 342 345 345 341 334 332 331 331 334 335 329 335 287 267 243 240 241 239 243
346 346 344 342 341 343 343 341 336 335 334 333 334 334 326 320 326 253 251 243 241 238
344 343 343 343 344 343 339 342 342 339 340 336 336 341 334 328 325 326 333 238 236 241
342 342 343 342 343 344 345 342 341 342 342 341 339 343 347 342 346 336 333 313 331 276
340 340 340 340 341 342 343 343 342 342 342 343 341 344 347 341 334 331 327 321 315 294
336 337 337 336 338 340 341 341 341 342 341 340 342 336 344 342 337 332 329 325 317 309
331 331 333 335 336 337 338 339 340 340 340 338 339 340 341 339 336 331 326 326 323 322
327 328 329 330 332 332 334 335 337 338 338 337 333 326 330 334 334 328 324 325 325 326
322 323 323 325 327 329 329 329 331 333 335 332 331 320 322 324 331 323 320 320 324 324
319 318 319 320 322 323 324 325 326 326 327 326 325 325 324 327 333 322 319 320 320 317
315 315 315 317 320 320 319 319 320 320 320 320 320 315 326 337 335 326 321 319 315 315
309 309 310 312 313 315 313 312 314 315 315 314 314 316 325 328 329 324 324 322 318 316
304 305 305 305 306 310 310 309 309 311 311 311 312 314 318 322 321 316 319 315 317 312
Height
866 862 858 855 851 846 841 836 829 824 821 818 818 814 808 803 809 805 812 813 816 820
867 863 859 855 851 847 843 838 832 827 822 819 816 812 808 802 806 797 805 807 808 813
867 864 860 856 852 847 843 838 833 828 823 818 816 811 806 810 804 797 797 801 801 804
867 864 859 856 852 848 843 838 833 828 824 819 815 812 808 805 799 798 789 789 796 794
866 863 859 855 851 848 843 839 834 828 823 819 816 811 808 805 800 798 792 790 788 794
866 862 858 855 851 847 842 839 834 830 825 820 817 812 808 806 804 801 795 793 791 788
864 861 857 853 849 845 842 838 834 830 826 823 819 814 811 808 803 797 794 791 788 788
862 859 855 851 847 844 840 837 834 830 826 823 820 816 813 809 804 799 794 790 787 782
860 857 853 850 847 843 839 836 833 830 826 823 820 815 812 809 804 799 795 790 785 782
858 855 852 849 845 841 839 836 832 828 825 822 819 814 812 807 802 798 795 791 786 782
856 853 850 847 844 841 837 833 830 826 824 822 819 813 808 804 802 797 793 790 786 781
855 851 848 844 841 838 835 832 828 825 821 819 816 812 808 805 802 797 792 789 785 781
852 849 846 843 839 836 833 829 826 822 820 816 813 810 806 805 802 796 792 787 781 778
849 846 844 840 837 833 830 827 824 821 817 813 810 808 805 802 800 797 792 787 780 776